{"data":{"norad_id":59695,"intl_designator":"2024-086P","name":"STARLINK-32104","alt_names":[],"object_type":"PAYLOAD","status":"ACTIVE","operator":null,"country":"US","launch_date":"2024-05-08","launch_site_code":"AFETR","launch_vehicle":null,"mission":null,"orbit_class":"UNKNOWN","rcs_meters":null,"size_class":null,"mass_kg":null,"dimensions":null,"purposes":["comms"],"wikipedia_slug":null,"has_3d_model":false,"image_url":null,"decayed_at":null,"tle_current":{"epoch":"2026-05-24T21:26:17.390112Z","epoch_age_seconds":78188,"freshness":"FRESH","line1":"1 59695U 24086P   26144.89325683  .00000439  00000+0  25473-4 0  9995","line2":"2 59695  43.0047 346.2532 0001332 258.0955 101.9747 15.27575422115806","mean_motion":15.27575422,"eccentricity":0.0001332,"inclination_deg":43.0047,"raan_deg":346.2532,"arg_perigee_deg":258.0955,"mean_anomaly_deg":101.9747,"bstar":2.5473e-5,"rev_number":11580,"period_min":94.26703122224,"perigee_km":482.14889243889,"apogee_km":483.97671606674,"semimajor_km":6861.1998042528,"source":"CELESTRAK","updated_at":"2026-05-25T13:38:19.042508Z"}}}